DLH5AM EDDM-EDDH

Flight info

Callsign DLH5AM
Flight time 0h 57m
Altitude 36000
Route INPUD2N/26R INPUD Y102 UPALA M726 NARUS DCT ABGUS DCT DIRBO/N0377F230 T902 RARUP RARUP6A
Aircraft A388/J-SADE2E3FGHIJ3J4J5M1RWXY/LB1D1

Departure

Time 2026-05-06 17:31
Airport Munich Airport (EDDM)

Arrival

Time 2026-05-06 18:28
Airport Hamburg Helmut Schmidt Airport (EDDH)
Time Latitude Longitude Altitude Speed Heading
2026-05-06 16:41 48.35339 11.80029 1490 ft 0 kts 263°
2026-05-06 16:56 48.35339 11.80030 1490 ft 0 kts 263°
2026-05-06 17:13 48.35340 11.80038 1475 ft 4 kts 262°
2026-05-06 17:13 48.35346 11.80077 1475 ft 4 kts 250°
2026-05-06 17:13 48.35357 11.80113 1475 ft 4 kts 232°
2026-05-06 17:13 48.35376 11.80141 1475 ft 4 kts 207°
2026-05-06 17:14 48.35401 11.80152 1475 ft 4 kts 177°
2026-05-06 17:14 48.35407 11.80152 1476 ft 0 kts 173°
2026-05-06 17:19 48.35397 11.80153 1475 ft 5 kts 173°
2026-05-06 17:19 48.35341 11.80164 1476 ft 11 kts 173°
2026-05-06 17:19 48.35250 11.80178 1487 ft 15 kts 174°
2026-05-06 17:19 48.35163 11.80192 1478 ft 1 kts 181°
2026-05-06 17:20 48.35147 11.80186 1480 ft 2 kts 221°
2026-05-06 17:20 48.35138 11.80156 1477 ft 5 kts 257°
2026-05-06 17:20 48.35121 11.79999 1482 ft 20 kts 265°
2026-05-06 17:20 48.35109 11.79803 1484 ft 18 kts 264°
2026-05-06 17:21 48.35102 11.79687 1490 ft 0 kts 266°
2026-05-06 17:21 48.35102 11.79678 1490 ft 4 kts 286°
2026-05-06 17:21 48.35119 11.79654 1477 ft 5 kts 342°
2026-05-06 17:21 48.35169 11.79635 1486 ft 10 kts 349°
2026-05-06 17:22 48.35250 11.79623 1482 ft 14 kts 355°
2026-05-06 17:22 48.35359 11.79607 1480 ft 17 kts 353°
2026-05-06 17:22 48.35485 11.79583 1479 ft 19 kts 352°
2026-05-06 17:22 48.35617 11.79562 1488 ft 19 kts 355°
2026-05-06 17:23 48.35751 11.79537 1477 ft 20 kts 354°
2026-05-06 17:23 48.35890 11.79514 1481 ft 18 kts 353°
2026-05-06 17:23 48.35993 11.79496 1484 ft 4 kts 353°
2026-05-06 17:25 48.36012 11.79493 1477 ft 7 kts 354°
2026-05-06 17:25 48.36084 11.79480 1483 ft 15 kts 353°
2026-05-06 17:25 48.36156 11.79468 1485 ft 1 kts 354°
2026-05-06 17:26 48.36185 11.79468 1477 ft 7 kts 13°
2026-05-06 17:26 48.36213 11.79510 1478 ft 6 kts 79°
2026-05-06 17:26 48.36223 11.79605 1478 ft 13 kts 82°
2026-05-06 17:26 48.36236 11.79764 1479 ft 18 kts 84°
2026-05-06 17:27 48.36252 11.79972 1477 ft 22 kts 80°
2026-05-06 17:27 48.36269 11.80210 1484 ft 24 kts 84°
2026-05-06 17:27 48.36291 11.80475 1480 ft 26 kts 84°
2026-05-06 17:27 48.36313 11.80761 1481 ft 29 kts 83°
2026-05-06 17:28 48.36336 11.81064 1487 ft 30 kts 83°
2026-05-06 17:28 48.36360 11.81381 1482 ft 31 kts 83°
2026-05-06 17:28 48.36387 11.81716 1483 ft 33 kts 83°
2026-05-06 17:28 48.36390 11.81971 1481 ft 22 kts 92°
2026-05-06 17:29 48.36416 11.82121 1475 ft 9 kts 34°
2026-05-06 17:29 48.36475 11.82133 1477 ft 10 kts 354°
2026-05-06 17:29 48.36560 11.82117 1487 ft 14 kts 352°
2026-05-06 17:29 48.36661 11.82087 1475 ft 14 kts 334°
2026-05-06 17:30 48.36676 11.82004 1485 ft 9 kts 269°
2026-05-06 17:30 48.36673 11.81901 1488 ft 16 kts 264°
2026-05-06 17:30 48.36635 11.81463 1481 ft 77 kts 263°
2026-05-06 17:30 48.36547 11.80301 1490 ft 141 kts 263°
2026-05-06 17:31 48.36436 11.78692 1751 ft 159 kts 264°
2026-05-06 17:31 48.36339 11.77076 2389 ft 152 kts 264°
2026-05-06 17:31 48.36269 11.75492 3024 ft 149 kts 266°
2026-05-06 17:31 48.36196 11.73919 3508 ft 158 kts 264°
2026-05-06 17:32 48.36060 11.72195 3723 ft 174 kts 262°
2026-05-06 17:32 48.35890 11.70347 3823 ft 187 kts 261°
2026-05-06 17:32 48.35928 11.68319 3909 ft 211 kts 284°
2026-05-06 17:32 48.36731 11.66398 4609 ft 225 kts 315°
2026-05-06 17:33 48.38138 11.65262 5466 ft 238 kts 344°
2026-05-06 17:33 48.39797 11.64805 6301 ft 250 kts 346°
2026-05-06 17:33 48.41583 11.64293 6772 ft 273 kts 346°
2026-05-06 17:33 48.43485 11.63733 7525 ft 282 kts 346°
2026-05-06 17:34 48.45434 11.63159 8316 ft 289 kts 346°
2026-05-06 17:34 48.47429 11.62572 8670 ft 292 kts 346°
2026-05-06 17:34 48.49425 11.61984 8834 ft 293 kts 346°
2026-05-06 17:34 48.51427 11.61393 8996 ft 294 kts 348°
2026-05-06 17:35 48.53451 11.60855 9137 ft 295 kts 349°
2026-05-06 17:35 48.55485 11.60377 9291 ft 296 kts 350°
2026-05-06 17:35 48.57517 11.59911 9433 ft 297 kts 350°
2026-05-06 17:36 48.61676 11.58931 10228 ft 320 kts 349°
2026-05-06 17:36 48.63976 11.58376 10464 ft 342 kts 349°
2026-05-06 17:36 48.66365 11.57798 11072 ft 350 kts 349°
2026-05-06 17:36 48.68750 11.57222 11794 ft 354 kts 349°
2026-05-06 17:37 48.71204 11.56628 12522 ft 359 kts 349°
2026-05-06 17:37 48.73689 11.56026 13291 ft 363 kts 349°
2026-05-06 17:37 48.76195 11.55417 13969 ft 367 kts 349°
2026-05-06 17:37 48.78737 11.54799 14635 ft 371 kts 349°
2026-05-06 17:38 48.81299 11.54176 15296 ft 375 kts 349°
2026-05-06 17:38 48.83890 11.53544 15955 ft 379 kts 349°
2026-05-06 17:38 48.86503 11.52907 16588 ft 383 kts 349°
2026-05-06 17:38 48.89142 11.52262 17225 ft 387 kts 348°
2026-05-06 17:39 48.91824 11.51606 17863 ft 390 kts 348°
2026-05-06 17:39 48.94516 11.50946 18417 ft 394 kts 348°
2026-05-06 17:39 48.97229 11.50283 19007 ft 396 kts 348°
2026-05-06 17:39 48.99965 11.49611 19528 ft 400 kts 348°
2026-05-06 17:40 49.02731 11.48932 20025 ft 404 kts 348°
2026-05-06 17:40 49.05525 11.48245 20537 ft 407 kts 348°
2026-05-06 17:40 49.08337 11.47553 21049 ft 411 kts 348°
2026-05-06 17:40 49.11178 11.46853 21551 ft 415 kts 348°
2026-05-06 17:41 49.14001 11.46157 22049 ft 418 kts 348°
2026-05-06 17:41 49.16888 11.45444 22558 ft 422 kts 348°
2026-05-06 17:41 49.18849 11.44959 22932 ft 423 kts 348°
2026-05-06 17:41 49.21765 11.44294 23454 ft 426 kts 352°
2026-05-06 17:42 49.25705 11.43734 23978 ft 431 kts 352°
2026-05-06 17:42 49.28711 11.43326 24398 ft 435 kts 352°
2026-05-06 17:42 49.31734 11.42914 24811 ft 438 kts 352°
2026-05-06 17:42 49.34785 11.42494 25227 ft 442 kts 352°
2026-05-06 17:43 49.36863 11.42205 25523 ft 444 kts 352°
2026-05-06 17:43 49.39916 11.41778 25963 ft 448 kts 352°
2026-05-06 17:43 49.43017 11.41344 26528 ft 449 kts 352°
2026-05-06 17:43 49.46144 11.40905 26990 ft 454 kts 352°
2026-05-06 17:44 49.49304 11.40460 27509 ft 458 kts 352°
2026-05-06 17:44 49.52498 11.40010 27986 ft 462 kts 352°
2026-05-06 17:44 49.55709 11.39556 28468 ft 466 kts 352°
2026-05-06 17:44 49.58945 11.39100 28975 ft 470 kts 351°
2026-05-06 17:45 49.62262 11.38632 29497 ft 474 kts 351°
2026-05-06 17:45 49.65521 11.38171 29943 ft 479 kts 351°
2026-05-06 17:45 49.68858 11.37698 30402 ft 482 kts 351°
2026-05-06 17:45 49.72218 11.37221 30865 ft 486 kts 351°
2026-05-06 17:46 49.75588 11.36742 31300 ft 490 kts 351°
2026-05-06 17:46 49.78993 11.36256 31737 ft 493 kts 351°
2026-05-06 17:46 49.82434 11.35765 32153 ft 497 kts 351°
2026-05-06 17:46 49.85892 11.35272 32591 ft 501 kts 351°
2026-05-06 17:47 49.89366 11.34777 33100 ft 503 kts 350°
2026-05-06 17:47 49.92879 11.34274 33499 ft 508 kts 350°
2026-05-06 17:47 49.96400 11.33768 33896 ft 511 kts 350°
2026-05-06 17:47 49.99958 11.33258 34269 ft 514 kts 350°
2026-05-06 17:48 50.03529 11.32745 34690 ft 516 kts 351°
2026-05-06 17:48 50.07103 11.32232 35188 ft 516 kts 351°
2026-05-06 17:48 50.10692 11.31717 35629 ft 518 kts 351°
2026-05-06 17:48 50.14276 11.31199 35759 ft 515 kts 351°
2026-05-06 17:49 50.21393 11.30171 35769 ft 518 kts 351°
2026-05-06 17:49 50.28579 11.29128 35774 ft 518 kts 351°
2026-05-06 17:50 50.35764 11.28082 35769 ft 518 kts 350°
2026-05-06 17:50 50.42929 11.27036 35767 ft 516 kts 350°
2026-05-06 17:51 50.50092 11.25986 35758 ft 516 kts 350°
2026-05-06 17:51 50.57242 11.24936 35757 ft 516 kts 350°
2026-05-06 17:52 50.64401 11.23881 35770 ft 516 kts 351°
2026-05-06 17:52 50.71551 11.22824 35766 ft 516 kts 351°
2026-05-06 17:53 50.78696 11.21765 35764 ft 516 kts 351°
2026-05-06 17:53 50.85796 11.20708 35777 ft 516 kts 351°
2026-05-06 17:54 50.92943 11.19642 35775 ft 515 kts 351°
2026-05-06 17:54 51.00088 11.18573 35777 ft 515 kts 351°
2026-05-06 17:55 51.07217 11.17502 35784 ft 514 kts 351°
2026-05-06 17:55 51.14341 11.16430 35767 ft 514 kts 351°
2026-05-06 17:56 51.21469 11.15354 35770 ft 514 kts 351°
2026-05-06 17:56 51.28591 11.14274 35777 ft 513 kts 351°
2026-05-06 17:57 51.35696 11.13194 35767 ft 513 kts 351°
2026-05-06 17:57 51.42814 11.12109 35776 ft 513 kts 351°
2026-05-06 17:58 51.49887 11.11027 35795 ft 513 kts 351°
2026-05-06 17:58 51.57002 11.09936 35804 ft 512 kts 351°
2026-05-06 17:59 51.64071 11.08847 35797 ft 511 kts 351°
2026-05-06 17:59 51.71166 11.07752 35795 ft 511 kts 351°
2026-05-06 18:00 51.78216 11.06659 35791 ft 510 kts 351°
2026-05-06 18:00 51.85284 11.05563 35786 ft 510 kts 351°
2026-05-06 18:01 51.92335 11.04267 35784 ft 508 kts 349°
2026-05-06 18:01 51.99349 11.02687 35786 ft 508 kts 349°
2026-05-06 18:02 52.06301 11.01167 35782 ft 508 kts 349°
2026-05-06 18:02 52.13319 10.99659 35780 ft 508 kts 349°
2026-05-06 18:03 52.20331 10.98152 35780 ft 508 kts 349°
2026-05-06 18:03 52.27320 10.96645 35798 ft 508 kts 349°
2026-05-06 18:04 52.34333 10.95127 35806 ft 508 kts 349°
2026-05-06 18:04 52.41340 10.93606 35810 ft 508 kts 349°
2026-05-06 18:05 52.48373 10.92075 35815 ft 507 kts 349°
2026-05-06 18:05 52.55366 10.90548 35815 ft 507 kts 349°
2026-05-06 18:06 52.62313 10.89028 35377 ft 499 kts 349°
2026-05-06 18:06 52.65755 10.88272 34806 ft 497 kts 349°
2026-05-06 18:06 52.69179 10.87518 34188 ft 494 kts 349°
2026-05-06 18:07 52.72578 10.86769 33537 ft 491 kts 349°
2026-05-06 18:07 52.75909 10.86034 32848 ft 487 kts 349°
2026-05-06 18:07 52.79256 10.85294 32157 ft 483 kts 349°
2026-05-06 18:07 52.82571 10.84560 31483 ft 479 kts 350°
2026-05-06 18:08 52.85870 10.83844 30828 ft 475 kts 350°
2026-05-06 18:08 52.89127 10.83183 30188 ft 470 kts 351°
2026-05-06 18:08 52.92355 10.82540 29478 ft 465 kts 351°
2026-05-06 18:08 52.95563 10.81899 28746 ft 461 kts 351°
2026-05-06 18:09 52.98730 10.81259 28031 ft 456 kts 351°
2026-05-06 18:09 53.01862 10.80622 27336 ft 452 kts 351°
2026-05-06 18:09 53.04973 10.79987 26661 ft 448 kts 351°
2026-05-06 18:09 53.08052 10.79357 25988 ft 444 kts 351°
2026-05-06 18:10 53.11108 10.78730 25339 ft 439 kts 350°
2026-05-06 18:10 53.14126 10.78110 24694 ft 435 kts 350°
2026-05-06 18:10 53.17119 10.77495 24074 ft 432 kts 350°
2026-05-06 18:10 53.20087 10.76882 23471 ft 428 kts 351°
2026-05-06 18:11 53.23032 10.76275 22765 ft 424 kts 351°
2026-05-06 18:11 53.25917 10.75680 22088 ft 420 kts 351°
2026-05-06 18:11 53.28799 10.75083 21393 ft 416 kts 351°
2026-05-06 18:11 53.31668 10.74490 20722 ft 412 kts 351°
2026-05-06 18:12 53.34508 10.73901 20066 ft 409 kts 351°
2026-05-06 18:12 53.37312 10.73319 19434 ft 406 kts 351°
2026-05-06 18:12 53.40118 10.72736 18802 ft 403 kts 351°
2026-05-06 18:12 53.42891 10.72159 18187 ft 400 kts 350°
2026-05-06 18:13 53.45642 10.71585 17488 ft 397 kts 350°
2026-05-06 18:13 53.48369 10.71014 16798 ft 394 kts 351°
2026-05-06 18:13 53.51075 10.70448 16131 ft 390 kts 351°
2026-05-06 18:13 53.53756 10.69886 15458 ft 387 kts 351°
2026-05-06 18:14 53.56383 10.69103 14815 ft 381 kts 340°
2026-05-06 18:14 53.58731 10.67146 14196 ft 374 kts 322°
2026-05-06 18:14 53.60524 10.64083 13720 ft 363 kts 302°
2026-05-06 18:14 53.61551 10.60312 13330 ft 350 kts 283°
2026-05-06 18:15 53.61790 10.56250 12605 ft 348 kts 264°
2026-05-06 18:15 53.61304 10.52337 12116 ft 339 kts 249°
2026-05-06 18:15 53.60544 10.48598 11489 ft 338 kts 250°
2026-05-06 18:15 53.59812 10.44821 10786 ft 339 kts 250°
2026-05-06 18:16 53.59091 10.41029 10247 ft 337 kts 252°
2026-05-06 18:16 53.58391 10.37364 10093 ft 322 kts 254°
2026-05-06 18:16 53.57719 10.33843 9957 ft 309 kts 254°
2026-05-06 18:16 53.57073 10.30474 9841 ft 296 kts 254°
2026-05-06 18:17 53.56444 10.27199 9715 ft 292 kts 253°
2026-05-06 18:17 53.55818 10.23950 9581 ft 293 kts 254°
2026-05-06 18:17 53.55191 10.20687 9445 ft 292 kts 252°
2026-05-06 18:17 53.54558 10.17420 9315 ft 296 kts 252°
2026-05-06 18:18 53.53922 10.14147 9174 ft 294 kts 253°
2026-05-06 18:18 53.53283 10.10867 9040 ft 295 kts 253°
2026-05-06 18:18 53.52647 10.07602 8911 ft 292 kts 252°
2026-05-06 18:18 53.52023 10.04402 8775 ft 291 kts 252°
2026-05-06 18:19 53.51384 10.01129 8561 ft 290 kts 252°
2026-05-06 18:19 53.50750 9.97889 7618 ft 300 kts 252°
2026-05-06 18:19 53.49957 9.94595 6558 ft 312 kts 241°
2026-05-06 18:19 53.48696 9.91593 5400 ft 325 kts 228°
2026-05-06 18:20 53.47210 9.88747 4685 ft 320 kts 229°
2026-05-06 18:20 53.45786 9.85914 4298 ft 305 kts 230°
2026-05-06 18:20 53.44468 9.83257 4092 ft 288 kts 229°
2026-05-06 18:20 53.43228 9.80758 4005 ft 277 kts 229°
2026-05-06 18:21 53.42015 9.78228 3987 ft 279 kts 237°
2026-05-06 18:21 53.41367 9.75206 3994 ft 277 kts 265°
2026-05-06 18:21 53.41595 9.72044 4000 ft 273 kts 294°
2026-05-06 18:21 53.42630 9.69461 3995 ft 265 kts 322°
2026-05-06 18:22 53.44173 9.67817 4005 ft 263 kts 335°
2026-05-06 18:22 53.45884 9.66942 3946 ft 257 kts
2026-05-06 18:22 53.47570 9.67730 3740 ft 251 kts 32°
2026-05-06 18:22 53.48826 9.69667 3528 ft 241 kts 53°
2026-05-06 18:23 53.49815 9.71843 3305 ft 228 kts 53°
2026-05-06 18:23 53.50764 9.73924 3044 ft 221 kts 53°
2026-05-06 18:23 53.51692 9.75867 2992 ft 201 kts 51°
2026-05-06 18:23 53.52539 9.77585 2992 ft 182 kts 51°
2026-05-06 18:24 53.53299 9.79120 2866 ft 162 kts 51°
2026-05-06 18:24 53.54010 9.80559 2602 ft 159 kts 52°
2026-05-06 18:24 53.54717 9.81985 2390 ft 159 kts 51°
2026-05-06 18:24 53.55422 9.83411 2141 ft 157 kts 51°
2026-05-06 18:25 53.56124 9.84830 1918 ft 159 kts 52°
2026-05-06 18:25 53.56834 9.86265 1699 ft 161 kts 51°
2026-05-06 18:25 53.57495 9.87589 1462 ft 133 kts 51°
2026-05-06 18:25 53.58055 9.88734 1201 ft 124 kts 52°
2026-05-06 18:26 53.58406 9.89484 1086 ft 122 kts 52°
2026-05-06 18:26 53.58951 9.90609 920 ft 133 kts 49°
2026-05-06 18:26 53.59738 9.92150 726 ft 132 kts 50°
2026-05-06 18:26 53.60321 9.93335 579 ft 128 kts 50°
2026-05-06 18:27 53.60870 9.94441 411 ft 117 kts 49°
2026-05-06 18:27 53.61218 9.95148 297 ft 115 kts 50°
2026-05-06 18:27 53.61726 9.96171 143 ft 117 kts 50°
2026-05-06 18:27 53.62245 9.97223 47 ft 112 kts 50°
2026-05-06 18:28 53.62659 9.98044 47 ft 68 kts 52°
2026-05-06 18:28 53.62833 9.98414 45 ft 30 kts 48°
2026-05-06 18:28 53.63074 9.98919 45 ft 64 kts 46°
2026-05-06 18:28 53.63320 9.99393 48 ft 34 kts 52°
2026-05-06 18:29 53.63406 9.99579 46 ft 19 kts 51°
2026-05-06 18:29 53.63498 9.99756 50 ft 25 kts 49°
2026-05-06 18:29 53.63526 9.99902 51 ft 6 kts 120°
2026-05-06 18:29 53.63479 10.00012 48 ft 0 kts 129°
2026-05-06 18:31 53.63473 10.00024 47 ft 6 kts 128°
2026-05-06 18:32 53.63433 10.00110 50 ft 0 kts 135°
2026-05-06 18:32 53.63410 10.00138 49 ft 9 kts 144°
2026-05-06 18:32 53.63330 10.00192 53 ft 15 kts 172°
2026-05-06 18:32 53.63226 10.00210 50 ft 13 kts 174°
2026-05-06 18:33 53.63139 10.00223 53 ft 12 kts 176°
2026-05-06 18:33 53.63069 10.00225 53 ft 9 kts 162°
2026-05-06 18:33 53.63030 10.00291 53 ft 9 kts 120°
2026-05-06 18:33 53.63019 10.00322 47 ft 6 kts 122°
2026-05-06 18:34 53.63013 10.00337 47 ft 4 kts 123°
2026-05-06 18:34 53.63012 10.00341 48 ft 0 kts 123°